Regional Weather Roundup
Issued by NWS

Home | Current Version | Previous Version | Graphics & Text | Print | Product List | Glossary On
Versions: 1 2 3 4 5 6 7 8 9 10 11 12 13 14 15 16 17 18 19 20 21 22 23 24 25 26 27 28 29 30 31 32 33 34 35 36 37 38 39 40 41 42 43 44 45
000
ASUS45 KTFX 290910
RWRMT
MONTANA REGIONAL WEATHER ROUNDUP
NATIONAL WEATHER SERVICE GREAT FALLS MT
300 AM MDT MON JUN 29 2015

NOTE: "FAIR" INDICATES FEW OR NO CLOUDS BELOW 12000 FEET WITH NO
SIGNIFICANT WEATHER AND/OR OBSTRUCTIONS TO VISIBILITY.

MTZ001>007-043-291000-
WEST OF THE DIVIDE

CITY           SKY/WX    TMP DP  RH WIND       PRES   REMARKS
KALISPELL      MOSUNNY   67  56  67 CALM      29.97F
MISSOULA       PTCLDY    73  47  39 SW5       29.99F
BUTTE          MOCLDY    74  44  34 S7        30.21F
MULLAN PASS    MOCLDY    76  35  22 SE9       30.18F
DEER LODGE       N/A     61  48  63 CALM      30.18F
EUREKA           N/A     70  52  52 CALM      29.97F
HAMILTON         N/A     68  52  56 S5        30.03S
RONAN            N/A     66  56  70 CALM      30.02F
$$

MTZ008-052>055-291000-
SOUTHWEST MONTANA

CITY           SKY/WX    TMP DP  RH WIND       PRES   REMARKS
BOZEMAN        PTCLDY    64  49  57 CALM      30.14S
DILLON         CLOUDY    69  44  40 SE3       30.18S
W YELLOWSTONE  MOCLDY    48  46  93 CALM      30.33S
THREE FORKS      N/A     59  59 100 CALM      30.11S
TWIN BRIDGES     N/A     76  45  33 N7        30.12F
$$

MTZ009-010-012-014-046-048-049-054-291000-
EAST SLOPES AND CENTRAL MONTANA

CITY           SKY/WX    TMP DP  RH WIND       PRES   REMARKS
CUT BANK       CLEAR     61  52  72 W9        30.12F
GREAT FALLS    CLEAR     62  46  55 W3        30.08F
MALMSTROM AFB  CLEAR     71  48  44 CALM      30.08F
HELENA         CLEAR     72  45  37 CALM      30.11R
$$

MTZ011-013-016-021-045-047-050-051-291000-
NORTH CENTRAL MONTANA

CITY           SKY/WX    TMP DP  RH WIND       PRES   REMARKS
HAVRE          CLEAR     65  52  62 E8        30.03R
CHINOOK          N/A     63  57  82 CALM      30.02S
FORT BENTON      N/A     66  46  48 SW5       30.05S
$$

MTZ017>020-022>027-061-062-291000-
NORTHEAST MONTANA

CITY           SKY/WX    TMP DP  RH WIND       PRES   REMARKS
GLASGOW        CLEAR     68  54  60 E8        29.98S
JORDAN           N/A     62  55  77 W6        30.01F
SIDNEY         CLEAR     61  54  77 CALM      29.99F
WOLF POINT     CLEAR     63  57  81 CALM      29.98S
MALTA            N/A     63  53  69 CALM      29.96S
PLENTYWOOD       N/A     68  57  68 CALM      29.98F
POPLAR           N/A     64  57  77 CALM      29.98F
$$

MTZ028>42-056>058-291000-
SOUTHCENTRAL AND SOUTHEAST MONTANA

CITY           SKY/WX    TMP DP  RH WIND       PRES   REMARKS
BAKER          CLEAR     64  57  78 E3        30.04F
BILLINGS       CLEAR     71  53  52 SW12      30.09F
LIVINGSTON     PTCLDY    59  49  69 CALM      30.17S
MILES CITY     CLEAR     71  57  61 NW3       30.00S
BIG TIMBER       N/A     66  50  55 SW3       30.17S
FORSYTH          N/A     68  57  68 CALM      30.01S
LAUREL           N/A     63  50  62 SW3       30.08S
ROUNDUP          N/A     64  50  60 SW3       30.00S
$$

REGIONAL REPORTS...DAKOTAS

CITY           SKY/WX    TMP DP  RH WIND       PRES   REMARKS
WILLISTON      CLEAR     59  55  87 CALM      29.98S
MINOT          CLEAR     67  56  67 SW10      29.93S
DICKINSON      CLEAR     61  56  83 NW5       30.00S
BEACH          FAIR      57  57 100 S5        30.03F
CROSBY         FAIR      61  61 100 CALM      29.97S
BISMARCK       CLEAR     60  57  89 W3        29.97S
GRAND FORKS    CLEAR     62  60  93 W6        29.82S
FARGO          CLEAR     63  60  90 W6        29.84F
BUFFALO SD       N/A     65  57  75 SW6       29.99F
RAPID CITY     PTCLDY    64  59  83 CALM      30.06S
$$

REGIONAL REPORTS...WYOMING/IDAHO/WASHINGTON

CITY           SKY/WX    TMP DP  RH WIND       PRES   REMARKS
GILLETTE       CLEAR     66  55  67 W5        30.09F
SHERIDAN       CLEAR     62  51  67 CALM      30.10F
BUFFALO WY     CLEAR     69  48  47 W13       30.17F
CODY           PTCLDY    70  48  46 SW6       30.21S
YELLOWSTONE LA   N/A     49  43  80 NW3       30.44F
IDAHO FALLS    CLEAR     61  56  83 N8        30.11S
SALMON         MOCLDY    64  46  52 CALM      30.05R
BOISE          MOCLDY    85  53  33 N8        29.94S
SPOKANE        CLOUDY    85  53  33 SW13      29.91R
$$

REGIONAL REPORTS...ALBERTA

CITY           SKY/WX    TMP DP  RH WIND       PRES   REMARKS
EDMONTON       CLEAR     59  48  67 NE5       30.05F
CALGARY        MOCLDY    66  54  63 CALM      30.13S
LETHBRIDGE     CLOUDY    63  59  88 W6        30.08S
MEDICINE HAT   CLEAR     63  54  72 SW3       30.05S
WATERTON GATE    N/A     55  54  94 SW3         N/A
CARDSTON         N/A     61  57  88 S2          N/A
MILK RIVER       N/A     61  55  82 NW8         N/A
$$

REGIONAL REPORTS...SASKATCHEWAN

CITY           SKY/WX    TMP DP  RH WIND       PRES   REMARKS
SWIFT CURRENT  CLEAR     68  55  64 NW10      30.02R
REGINA         PTCLDY    61  55  82 VRB2      29.97S
SASKATOON      CLEAR     61  57  88 N7        29.99R
CYPRESS HILLS    N/A     68  46  45 NE5         N/A
VAL MARIE        N/A     57  50  77 N1          N/A
$$


USA.gov is the U.S. government's official web portal to all federal, state and local government web resources and services.